Weather History for Stanley, ND

Change the Weather History Date:

Sunday, December 8, 2013

  Actual Average (KMOT) Record (KMOT)
Temperature  
Mean Temperature -13 °F 17 °F  
Max Temperature -4 °F 26 °F 54 °F (1939)
Min Temperature -22 °F 9 °F -29 °F (1919)
Degree Days  
Heating Degree Days 78 48  
Month to date heating degree days 370  
Since 1 July heating degree days 2428  
Moisture  
Dew Point -19 °F    
Average Humidity 76    
Maximum Humidity 84    
Minimum Humidity 65    
Precipitation  
Precipitation 0.00 in 0.01 in 0.26 in (1973)
Month to date precipitation 0.10  
Year to date precipitation 16.91  
Sea Level Pressure  
Sea Level Pressure 29.97 in    
Wind  
Wind Speed 10 mph (West)    
Max Wind Speed 17 mph    
Max Gust Speed 24 mph    
Visibility 10 miles    
Events Snow    
T = Trace of Precipitation, MM = Missing Value Source: NWS Daily Summary

Daily Weather History Graph

Daily Weather History Graph

Search for Another Location

Airport:

Trip Planner

Search our weather history database for the weather conditions in past years. The results will help you decide how hot, cold, wet, or windy it might be!

Date:

Astronomy

Dec. 08, 2013 Rise Set
Actual Time 8:27 AM CST 4:55 PM CST
Civil Twilight 7:51 AM CST 5:31 PM CST
Nautical Twilight 7:11 AM CST 6:11 PM CST
Astronomical Twilight 6:34 AM CST 6:49 PM CST
Moon 12:27 PM CST (12/8) No Moon Set
Length of Visible Light 9h 40m
Length of Day
8h 27m
Waxing Crescent, 40% of the Moon is Illuminated
Dec 8
Waxing Crescent
Dec 9
First Quarter
Dec 17
Full
Dec 25
Last Quarter
Jan 1
New

Hourly Weather History & Observations

Time (CST) Temp. Windchill Dew Point Humidity Pressure Visibility Wind Dir Wind Speed Gust Speed Precip Events Conditions
12:15 AM -20.2 °F -40.1 °F -25.6 °F 76% 30.16 in 10.0 mi WSW 9.2 mph - N/A   Clear
12:35 AM -20.2 °F -38.8 °F -27.4 °F 69% 30.15 in 10.0 mi WSW 8.1 mph - N/A   Clear
12:55 AM -22.0 °F -37.7 °F -27.4 °F 76% 30.14 in 10.0 mi WSW 5.8 mph - N/A   Clear
1:15 AM -20.2 °F -38.8 °F -25.6 °F 76% 30.13 in 10.0 mi WSW 8.1 mph - N/A   Clear
1:35 AM -20.2 °F -35.5 °F -25.6 °F 76% 30.11 in 10.0 mi West 5.8 mph - N/A   Clear
1:55 AM -18.4 °F -35.1 °F -23.8 °F 76% 30.10 in 10.0 mi West 6.9 mph - N/A   Clear
2:15 AM -20.2 °F -38.8 °F -25.6 °F 76% 30.10 in 10.0 mi SW 8.1 mph - N/A   Clear
2:35 AM -20.2 °F -40.1 °F -25.6 °F 76% 30.09 in 10.0 mi SSW 9.2 mph - N/A   Clear
2:55 AM -20.2 °F -41.3 °F -25.6 °F 76% 30.08 in 10.0 mi SW 10.4 mph - N/A   Partly Cloudy
3:15 AM -20.2 °F -38.8 °F -27.4 °F 69% 30.07 in 10.0 mi SW 8.1 mph - N/A   Partly Cloudy
3:35 AM -22.0 °F -35.6 °F -27.4 °F 76% 30.07 in 10.0 mi SW 4.6 mph - N/A   Clear
3:55 AM -20.2 °F -38.8 °F -25.6 °F 76% 30.05 in 10.0 mi SW 8.1 mph - N/A   Clear
4:15 AM -20.2 °F -35.5 °F -25.6 °F 76% 30.04 in 10.0 mi SW 5.8 mph - N/A   Clear
4:35 AM -20.2 °F -35.5 °F -25.6 °F 76% 30.03 in 10.0 mi WSW 5.8 mph - N/A   Clear
4:55 AM -20.2 °F -35.5 °F -25.6 °F 76% 30.02 in 10.0 mi SW 5.8 mph - N/A   Partly Cloudy
5:15 AM -20.2 °F -40.1 °F -25.6 °F 76% 30.01 in 10.0 mi SSW 9.2 mph - N/A   Partly Cloudy
5:35 AM -20.2 °F -37.3 °F -27.4 °F 69% 30.00 in 10.0 mi SSW 6.9 mph - N/A   Partly Cloudy
5:55 AM -20.2 °F -40.1 °F -25.6 °F 76% 29.99 in 10.0 mi SW 9.2 mph - N/A   Scattered Clouds
6:15 AM -22.0 °F -41.0 °F -27.4 °F 76% 29.99 in 10.0 mi SW 8.1 mph - N/A   Mostly Cloudy
6:35 AM -20.2 °F -40.1 °F -27.4 °F 69% 29.98 in 10.0 mi SW 9.2 mph - N/A   Mostly Cloudy
6:55 AM -20.2 °F -38.8 °F -25.6 °F 76% 29.97 in 10.0 mi SW 8.1 mph - N/A   Mostly Cloudy
7:15 AM -18.4 °F -35.1 °F -25.6 °F 70% 29.96 in 10.0 mi SW 6.9 mph - N/A   Scattered Clouds
7:35 AM -18.4 °F -37.9 °F -25.6 °F 70% 29.96 in 10.0 mi SW 9.2 mph - N/A   Scattered Clouds
7:55 AM -18.4 °F -39.1 °F -23.8 °F 76% 29.95 in 10.0 mi SW 10.4 mph - N/A   Partly Cloudy
8:15 AM -18.4 °F -39.1 °F -22.0 °F 84% 29.95 in 10.0 mi SW 10.4 mph - N/A   Clear
8:35 AM -16.6 °F -36.8 °F -22.0 °F 76% 29.94 in 10.0 mi SW 10.4 mph - N/A   Clear
8:55 AM -16.6 °F -35.7 °F -22.0 °F 76% 29.94 in 10.0 mi SW 9.2 mph - N/A   Clear
9:15 AM -16.6 °F -35.7 °F -20.2 °F 84% 29.94 in 10.0 mi SW 9.2 mph - N/A   Clear
9:35 AM -13.0 °F -30.0 °F -18.4 °F 77% 29.94 in 10.0 mi SW 8.1 mph - N/A   Clear
9:55 AM -13.0 °F -33.4 °F -18.4 °F 77% 29.94 in 10.0 mi SW 11.5 mph - N/A   Clear
10:35 AM -11.2 °F -30.1 °F -16.6 °F 77% 29.92 in 10.0 mi WSW 10.4 mph - N/A   Clear
10:55 AM -11.2 °F -31.1 °F -16.6 °F 77% 29.92 in 10.0 mi SW 11.5 mph - N/A   Clear
11:15 AM -9.4 °F -27.9 °F -14.8 °F 77% 29.92 in 10.0 mi SW 10.4 mph - N/A   Clear
11:35 AM -9.4 °F -28.9 °F -13.0 °F 84% 29.91 in 10.0 mi WSW 11.5 mph - N/A   Clear
11:55 AM -9.4 °F -31.4 °F -13.0 °F 84% 29.90 in 10.0 mi WSW 15.0 mph - N/A   Clear
12:15 PM -7.6 °F -29.1 °F -13.0 °F 77% 29.89 in 10.0 mi SW 15.0 mph - N/A   Clear
12:35 PM -7.6 °F -28.3 °F -13.0 °F 77% 29.89 in 10.0 mi WSW 13.8 mph - N/A   Clear
12:55 PM -7.6 °F -28.3 °F -14.8 °F 71% 29.89 in 10.0 mi West 13.8 mph - N/A   Clear
1:15 PM -7.6 °F -29.1 °F -14.8 °F 71% 29.88 in 10.0 mi West 15.0 mph - N/A   Clear
1:35 PM -7.6 °F -29.1 °F -13.0 °F 77% 29.88 in 10.0 mi WSW 15.0 mph - N/A   Clear
1:55 PM -5.8 °F -26.0 °F -13.0 °F 71% 29.88 in 10.0 mi West 13.8 mph 23.0 mph N/A   Clear
2:15 PM -5.8 °F -27.5 °F -13.0 °F 71% 29.88 in 10.0 mi West 16.1 mph - N/A   Clear
2:35 PM -5.8 °F -25.2 °F -13.0 °F 71% 29.88 in 10.0 mi West 12.7 mph 19.6 mph N/A   Clear
2:55 PM -5.8 °F -26.0 °F -13.0 °F 71% 29.88 in 10.0 mi West 13.8 mph 18.4 mph N/A   Clear
3:15 PM -5.8 °F -24.4 °F -13.0 °F 71% 29.88 in 10.0 mi WNW 11.5 mph 20.7 mph N/A   Clear
3:35 PM -4.0 °F -25.2 °F -13.0 °F 65% 29.88 in 10.0 mi WNW 16.1 mph 20.7 mph N/A   Clear
3:55 PM -4.0 °F -23.7 °F -13.0 °F 65% 29.89 in 10.0 mi WNW 13.8 mph 20.7 mph N/A   Partly Cloudy
4:15 PM -4.0 °F -21.2 °F - N/A% 29.89 in 10.0 mi WNW 10.4 mph 16.1 mph N/A   Clear
4:35 PM -5.8 °F -22.4 °F -13.0 °F 71% 29.90 in 10.0 mi WNW 9.2 mph 18.4 mph N/A   Clear
4:55 PM -5.8 °F -23.4 °F -11.2 °F 77% 29.90 in 10.0 mi WNW 10.4 mph - N/A Snow Light Snow
5:15 PM -5.8 °F -26.8 °F -11.2 °F 77% 29.90 in 10.0 mi WNW 15.0 mph 19.6 mph N/A   Scattered Clouds
5:35 PM -7.6 °F -26.6 °F -11.2 °F 84% 29.92 in 10.0 mi WNW 11.5 mph - N/A   Partly Cloudy
5:55 PM -7.6 °F -24.6 °F -11.2 °F 84% 29.92 in 10.0 mi WNW 9.2 mph - N/A   Partly Cloudy
6:15 PM -7.6 °F -23.4 °F -13.0 °F 77% 29.93 in 10.0 mi WNW 8.1 mph - N/A   Mostly Cloudy
6:35 PM -7.6 °F -23.4 °F -13.0 °F 77% 29.94 in 10.0 mi NW 8.1 mph - N/A   Overcast
6:55 PM -7.6 °F -28.3 °F -13.0 °F 77% 29.94 in 10.0 mi NW 13.8 mph 20.7 mph N/A   Overcast
7:15 PM -7.6 °F -30.5 °F -13.0 °F 77% 29.95 in 10.0 mi NW 17.3 mph 24.2 mph N/A Snow Light Snow
7:35 PM -7.6 °F -28.3 °F -13.0 °F 77% 29.96 in 10.0 mi NW 13.8 mph 20.7 mph N/A   Overcast
7:55 PM -9.4 °F -30.6 °F -13.0 °F 84% 29.96 in 10.0 mi NW 13.8 mph 18.4 mph N/A   Overcast
8:15 PM -9.4 °F -32.8 °F -13.0 °F 84% 29.96 in 10.0 mi NW 17.3 mph 23.0 mph N/A   Overcast
8:35 PM -9.4 °F -30.6 °F -13.0 °F 84% 29.97 in 10.0 mi NW 13.8 mph 23.0 mph N/A   Overcast
8:55 PM -9.4 °F -31.4 °F -13.0 °F 84% 29.97 in 10.0 mi NW 15.0 mph 21.9 mph N/A   Mostly Cloudy
9:15 PM -9.4 °F -29.8 °F -13.0 °F 84% 29.99 in 10.0 mi NW 12.7 mph 20.7 mph N/A   Mostly Cloudy
9:35 PM -9.4 °F -30.6 °F -14.8 °F 77% 29.98 in 10.0 mi WNW 13.8 mph 21.9 mph N/A   Scattered Clouds
9:55 PM -9.4 °F -28.9 °F -14.8 °F 77% 29.98 in 10.0 mi WNW 11.5 mph - N/A   Scattered Clouds
10:15 PM -9.4 °F -32.1 °F -14.8 °F 77% 29.98 in 10.0 mi WNW 16.1 mph 23.0 mph N/A   Partly Cloudy
10:35 PM -11.2 °F -30.1 °F -16.6 °F 77% 29.98 in 10.0 mi WNW 10.4 mph - N/A   Scattered Clouds
10:55 PM -11.2 °F -32.9 °F -16.6 °F 77% 29.98 in 10.0 mi WNW 13.8 mph 19.6 mph N/A   Scattered Clouds
11:15 PM -11.2 °F -32.9 °F -16.6 °F 77% 29.98 in 10.0 mi WNW 13.8 mph 23.0 mph N/A   Partly Cloudy
11:35 PM -11.2 °F -33.7 °F -16.6 °F 77% 29.98 in 10.0 mi WNW 15.0 mph - N/A   Clear
11:55 PM -11.2 °F -32.1 °F -16.6 °F 77% 29.98 in 10.0 mi WNW 12.7 mph - N/A   Mostly Cloudy